Погода Исанбай

Погода Исанбай : погода сейчас, прогноз погоды и архив. Всё, что Вы хотите узнать о погоде Исанбай!

Поиск расширенной информации на нашем сайте:

Другие новости

Новости СМИ2

Главная страница сайта

Новости сайта

03.07.2017

Напоминаем, что на нашем специализированном сайте Метеоцентр.Азия вы можете получить высокодетализированные автоматические прогнозы погоды по пунктам России, СНГ и мира в авиационном формате (включающие направление и скорость ветра, видимость, явления погоды, количество и форму облачности, нижнюю и верхнюю границу облачности).


Погода Исанбай - сегодня

Время (UTC), дата Ветер
(°,м/с) 
Видим.   Явления Облачность Т
(°С)
Тd
(°С)
f(%) Тe
(°С)
Pmin
(гПа)
dP
(гПа)
Po
(мм)
O2
(г/м3)
Тmin Tmax R s Состояние
почвы
03 17.10.17 020 (С) 20000 м    ясно 
+16.5 +3.2 41 +17  1012.2  -0.2  711  270  +11.5         
06 17.10.17 020 (С) 20000 м    8/0 верхняя 
[Ci sp]
+26.7 -1.4 16 +27  1009.9  -0.1  711  261           
09 17.10.17 050 (СВ) 20000 м    3/0 верхняя 
[Ci sp]
+31.6 -0 13 +32  1005.7  -2.9  709  256           
12 17.10.17 270 (З) 20000 м    ясно 
+31.5 +0.2 13 +32  1004.9  -0.8  708  256           
15 17.10.17 050 (СВ) н/о    ясно 
+21.5 +0.9 25 +22  1007  708  264    +32.2       
18 17.10.17 230 (ЮЗ) н/о    10/4 1000 м кучево-дожд., средняя 
[Cb cap|Ac und]
+22 +3.2 29 +22  1010.4  3.3  710  264           
21 17.10.17 230 (ЮЗ) 10  н/о    10/10 1000 м кучево-дожд. 
[Cb cap]
+15.1 +6.5 56 +14  1015.2  3.1  713  271           
00 18.10.17 230 (ЮЗ) н/о    10/5 1000 м кучево-дожд., средняя 
[Cb cap|Ac und]
+13.1 +5.6 60 +12  1019.6  3.6  716  274           
03 18.10.17 200 (Ю) 2000 м  мгла  10/4 1000 м кучево-дожд., верхняя 
[Cb cap|Ci sp]
+12.1 +5.1 62 +11  1023  718  276  +11.9         
06 18.10.17 230 (ЮЗ) 20000 м    10/3 1000 м верхняя 
[Cu med, cong|Ci sp]
+14.9 +0.6 38 +14  1023.8  1.3  719  274           
09 18.10.17 270 (З) 20000 м    10/0 средняя, верхняя 
[Ac trans|Ci sp]
+16.8 +2.9 39 +17  1023.7  0.3  719  272           
12 18.10.17 230 (ЮЗ) 20000 м    3/0 верхняя 
[Ci sp]
+16.7 +3.2 40 +17  1023.3  -0.3  719  272           
15 18.10.17 230 (ЮЗ) н/о    ясно 
+12.4 +5 61 +12  1026.8  2.3  720  277    +17.5       
18 18.10.17 050 (СВ) н/о    ясно 
+10.3 +3.8 64 +11  1027.4  720  279           
21 18.10.17 050 (СВ) н/о    ясно 
+8.4 +2.7 67 +7  1028.5  0.6  721  282           
00 19.10.17 020 (С) н/о    ясно 
+7.8 +3.8 76 +8  1030.4  0.6  722  282           
03 19.10.17 020 (С) 20000 м    ясно 
+8.1 +3.4 72 +9  1030.3  0.1  722  282  +7.4         
06 19.10.17 340 (С) 10 км  пыль  3/3 1000 м 
[Cu med, cong]
+16.1 +3.6 43 +16  1028.5  0.1  722  274           
09 19.10.17 360 (С) 10 км  пыль  3/3 1000 м 
[Cu med, cong]
+21.1 +2.3 29 +21  1025  -2.3  721  269           
12 19.10.17 270 (З) 20000 м    1/1 1000 м 
[Cu med, cong]
+19.5 +1.1 29 +21  1024.5  -0.7  720  271           
15 19.10.17 140 (ЮВ) н/о    ясно 
+15.5 +1.1 38 +16  1026.3  0.8  721  275    +22       
18 19.10.17 тихо ()   н/о    ясно 
+11 +2.1 54 +11  1027.8  0.4  721  279           
21 19.10.17 050 (СВ) н/о    ясно 
+8.9 +1.9 61 +8  1028.8  0.3  721  281           
00 20.10.17 020 (С) н/о    ясно 
+6.6 +2.2 73 +6  1026.4  -2.6  719  283           
03 20.10.17 320 (СЗ) 20000 м    ясно 
+7.5 +0.6 62 +8  1025.7  -0.5  719  282  +6.2         
Время (UTC), дата Ветер
(°,м/с) 
Видим.   Явления Облачность Т
(°С)
Тd
(°С)
f(%) Тe
(°С)
Pmin
(гПа)
dP
(гПа)
Po
(мм)
O2
(г/м3)
Тmin Tmax R s Состояние
почвы

Для получения пояснительной информации подведите курсор к названию столбца.

ПОГОДА Исанбай - архив

Всё, что Вы хотите узнать о погоде Исанбай - удобно и подробно!

Выберите нужную дату (начиная с 1 января 2015* года) и нажмите кнопку "Найти".
Будут отображены архивные сводки погоды по пункту Исанбай, начиная с указанной даты.


Отображать данные в формате CSV (для использования в таблицах Excel)


Внимание! Наш архив погоды предназначен исключительно для личного некоммерческого использования в познавательных целях. Если Вам необходимы официальные справки о состоянии погоды (для производственных, юридических, коммерческих и т.п. целей), обращайтесь в органы Росгидромета.

*Примечание: данная дата относится к архиву по метеостанциям СССР (Россия, СНГ, Балтия).
Архив по метеостанциям Зарубежной Европы и Азии (кроме Китая) хранится 10 дней, по другим регионам земного шара (Китай, Африка, Америка, Австралия, Океания) - 1 день.

Исанбай - район местоположения метеостанции


Название, широта, долгота, высота метеостанции:
Исанбай 38°ш. 68.4°д. 565 м над ур. моря [Таджикистан]

Дополнительная информация

В oтличие oт бoльшинства пoгoдных сайтoв мы публикуем пoдрoбную метеoинфoрмацию в детальнoм прoфессиoнальнoм фoрмате.

Характеристики температуры и влажнoсти вoздуха измеряются на высoте 2 м в тени вдали oт зданий и деревьев.
Скoрoсть ветра измеряется на высoте 10 м (на урoвне рoста челoвека скoрoсть ветра ниже в 1.5-2 раза). Если метеoстанция нахoдится в гoрoде или в лесу, тo скoрoсть ветра занижена на 2-4 м/с пo сравнению с oткрытым местoм. Скoрoсть ветра над акватoриями крупных рек и oзёр, а также на вершинах хoлмoв на 2-5 м/с выше, чем в oбычных услoвиях.
Атмoсфернoе давление в разных тoчках местнoсти мoжет значительнo oтличаться oт давления на метеoстанции, в зависимoсти oт услoвий рельефа (при пoдъёме на 10 м давление пoнижается примернo на 1 мм рт.ст.).